1491937200.28,61491,14.38,73154.0,-11.15,-38.35,-39.47,0,*6B
1491937201.54,61492,14.38,73158.0,-11.17,-38.91,-39.91,0,*6F
1491937202.8,61493,14.38,73154.8,-11.17,-38.35,-39.53,0,*6E
1491937204.07,61494,14.38,73154.8,-11.19,-37.81,-39.15,0,*65
1491937205.29,61495,14.38,73152.8,-11.19,-37.15,-38.61,0,*6B
1491937206.58,61496,14.38,73170.0,-11.21,-38.49,-39.79,0,*6D
1491937207.82,61497,14.38,73160.5,-11.21,-38.97,-40.15,0,*6B
1491937209.08,61498,14.38,73164.5,-11.23,-38.67,-39.79,0,*6D
1491937210.35,61499,14.38,73166.8,-11.23,-38.29,-39.53,0,*6E
1491937211.61,61500,14.38,73170.8,-11.25,-38.67,-39.85,0,*68
1491937212.89,61501,14.38,73166.5,-11.25,-38.11,-39.23,0,*64
1491937214.17,61502,14.38,73166.8,-11.25,-37.93,-39.03,0,*60
1491937215.44,61503,14.38,73166.0,-11.27,-38.23,-39.29,0,*6F
1491937216.66,61504,14.38,73164.0,-11.31,-38.43,-39.65,0,*61
1491937217.88,61505,14.38,73164.5,-11.31,-38.61,-39.65,0,*60
1491937219.12,61506,14.38,73164.0,-11.31,-38.97,-40.09,0,*6E
1491937220.39,61507,14.38,73160.3,-11.33,-39.09,-39.97,0,*62
1491937221.63,61508,14.38,73164.5,-11.33,-39.09,-40.15,0,*69
1491937222.88,61509,14.38,73166.8,-11.35,-39.35,-40.21,0,*66
1491937224.09,61510,14.38,73164.3,-11.35,-38.97,-39.85,0,*67
1491937225.35,61511,14.38,73166.8,-11.35,-38.23,-39.15,0,*60
1491937226.57,61512,14.38,73162.3,-11.35,-37.03,-38.17,0,*6D
1491937227.83,61513,14.38,73158.0,-11.33,-37.63,-38.97,0,*64
1491937229.12,61514,14.38,73160.8,-11.33,-37.99,-39.15,0,*6D
1491937230.35,61515,14.38,73166.8,-11.33,-38.55,-39.47,0,*64
1491937231.59,61516,14.38,73172.3,-11.33,-39.09,-40.03,0,*61
1491937232.83,61517,14.38,73162.5,-11.33,-38.61,-38.73,0,*67
1491937234.04,61518,14.38,73144.5,-11.35,-38.43,-39.35,0,*6D
1491937235.31,61519,14.38,73102.8,-11.37,-36.73,-37.51,0,*6F
1491937236.53,61520,14.38,73114.3,-11.39,-35.59,-36.43,0,*62
1491937237.75,61521,14.38,73134.8,-11.39,-32.69,-33.83,0,*6E
1491937239.0,61522,14.38,73146.3,-11.39,-32.57,-34.01,0,*6D
1491937240.22,61523,14.38,73138.5,-11.39,-32.35,-34.47,0,*6A
1491937241.47,61524,14.38,73138.5,-11.37,-32.69,-34.47,0,*6A
1491937242.74,61525,14.38,73158.0,-11.39,-32.29,-34.53,0,*64
1491937243.98,61526,14.38,73164.5,-11.41,-31.95,-36.55,0,*68
1491937245.24,61527,14.38,73122.5,-11.43,-35.83,-37.45,0,*68
1491937246.5,61528,14.38,73082.8,-11.43,-32.79,-33.15,0,*64
1491937247.77,61529,14.38,73128.8,-11.43,-31.29,-32.75,0,*64
1491937249.04,61530,14.38,73126.3,-11.43,-32.63,-35.29,0,*6F
1491937250.29,61531,14.38,73138.5,-11.43,-38.29,-39.35,0,*6B
1491937251.56,61532,14.38,73106.0,-11.43,-37.21,-37.57,0,*65
1491937252.79,61533,14.38,73120.8,-11.47,-35.17,-36.85,0,*69
1491937254.05,61534,14.38,73144.0,-11.47,-35.41,-36.97,0,*6E
1491937255.29,61535,14.38,73156.3,-11.45,-36.43,-37.99,0,*63
1491937256.58,61536,14.38,73160.0,-11.47,-37.69,-38.67,0,*65
1491937257.84,61537,14.38,73146.3,-11.47,-38.43,-39.41,0,*66
1491937259.05,61538,14.38,73156.5,-11.45,-38.55,-39.35,0,*6F
1491937260.33,61539,14.38,73148.0,-11.47,-38.67,-39.41,0,*6E
1491937261.59,61540,14.38,73152.0,-11.47,-38.61,-39.41,0,*66
1491937262.85,61541,14.38,73150.5,-11.47,-38.61,-39.53,0,*64
1491937264.11,61542,14.38,73150.5,-11.45,-38.91,-39.71,0,*6A
1491937265.41,61543,14.38,73126.8,-11.47,-38.79,-39.59,0,*65
1491937266.67,61544,14.38,73138.3,-11.47,-38.61,-39.53,0,*61
1491937267.9,61545,14.38,73128.3,-11.45,-38.35,-39.29,0,*6E
1491937269.16,61546,14.38,73140.8,-11.47,-38.55,-39.41,0,*67
1491937270.42,61547,14.38,73120.8,-11.47,-37.99,-38.17,0,*6B
1491937271.69,61548,14.38,73118.8,-11.47,-36.67,-38.79,0,*6C
1491937272.95,61549,14.38,73130.0,-11.47,-38.05,-39.23,0,*69
1491937274.24,61550,14.38,73136.0,-11.47,-38.79,-39.59,0,*67
1491937275.52,61551,14.38,73138.3,-11.51,-38.11,-39.29,0,*68
1491937276.76,61552,14.38,73150.3,-11.49,-38.17,-39.15,0,*6B
1491937277.99,61553,14.38,73158.3,-11.49,-38.43,-39.41,0,*6A
1491937279.26,61554,14.38,73146.8,-11.49,-38.49,-39.15,0,*66
1491937280.52,61555,14.38,73152.5,-11.51,-37.75,-38.67,0,*6A
1491937281.78,61556,14.38,73168.3,-11.51,-37.87,-38.91,0,*6D
1491937283.04,61557,14.38,73168.5,-11.51,-38.49,-39.47,0,*6B
1491937284.28,61558,14.38,73170.3,-11.51,-38.73,-39.65,0,*6D
1491937285.54,61559,14.38,73160.3,-11.55,-38.67,-39.65,0,*6D
1491937286.83,61560,14.38,73168.5,-11.51,-38.67,-39.59,0,*6C
1491937288.09,61561,14.38,73168.0,-11.51,-38.43,-39.23,0,*66
1491937289.32,61562,14.38,73172.8,-11.51,-38.61,-39.47,0,*67
1491937290.58,61563,14.38,73168.8,-11.51,-38.61,-39.59,0,*69
1491937291.84,61564,14.38,73168.8,-11.51,-38.43,-39.41,0,*67
1491937293.1,61565,14.38,73174.0,-11.55,-38.49,-39.47,0,*6E
1491937294.36,61566,14.38,73174.8,-11.55,-38.61,-39.41,0,*61
1491937295.65,61567,14.38,73190.5,-11.51,-37.09,-38.49,0,*6C
1491937296.89,61568,14.38,73180.5,-11.55,-38.43,-39.09,0,*63
1491937298.16,61569,14.38,73172.3,-11.55,-34.83,-33.55,0,*61
1491937299.39,61570,14.38,73172.5,-11.57,-32.35,-34.53,0,*61
1491937300.66,61571,14.38,73142.8,-11.55,-34.65,-34.71,0,*61
1491937301.93,61572,14.38,73156.8,-11.55,-32.51,-32.75,0,*61
1491937303.17,61573,14.38,73188.0,-11.55,-34.89,-38.05,0,*6E
1491937304.41,61574,14.38,73176.0,-11.55,-37.45,-38.43,0,*68
1491937305.68,61575,14.38,73164.5,-11.57,-38.49,-38.91,0,*67
1491937306.91,61576,14.38,73170.0,-11.57,-38.17,-39.29,0,*6D
1491937308.12,61577,14.38,73136.8,-11.57,-38.17,-38.17,0,*60
1491937309.36,61578,14.38,73170.0,-11.57,-37.03,-37.21,0,*6F
1491937310.63,61579,14.38,73140.8,-11.57,-37.51,-38.91,0,*6D
1491937311.87,61580,14.38,73180.3,-11.57,-36.07,-37.39,0,*64
1491937313.08,61581,14.38,73184.3,-11.57,-36.43,-38.17,0,*66
1491937314.31,61582,14.38,73186.0,-11.59,-38.17,-39.47,0,*60
1491937315.58,61583,14.38,73178.8,-11.59,-37.75,-38.79,0,*66
1491937316.84,61584,14.38,73170.5,-11.59,-38.17,-39.15,0,*61
1491937318.11,61585,14.38,73170.5,-11.59,-37.81,-38.73,0,*61
1491937319.4,61586,14.38,73182.8,-11.59,-38.29,-38.79,0,*65
1491937320.67,61587,14.38,73144.8,-11.59,-36.49,-35.89,0,*6E
1491937321.91,61588,14.38,73142.0,-11.61,-34.25,-35.53,0,*65
1491937323.13,61589,14.31,73174.3,-11.61,-34.59,-36.31,0,*68
1491937324.4,61590,14.38,73172.3,-11.61,-36.49,-38.23,0,*6E
1491937325.62,61591,14.38,73176.0,-11.65,-36.97,-38.05,0,*6C
1491937326.85,61592,14.38,73166.8,-11.61,-36.07,-36.91,0,*61
1491937328.08,61593,14.38,73162.3,-11.61,-34.47,-35.13,0,*6F
1491937329.35,61594,14.38,73168.5,-11.65,-34.83,-37.09,0,*6D
1491937330.62,61595,14.38,73162.0,-11.65,-35.83,-37.51,0,*60
1491937331.86,61596,14.38,73170.5,-11.65,-36.61,-38.05,0,*62
1491937333.12,61597,14.31,73164.3,-11.65,-38.11,-39.29,0,*65
1491937334.38,61598,14.38,73156.5,-11.65,-38.91,-39.79,0,*67
1491937335.65,61599,14.38,73158.0,-11.67,-37.87,-39.03,0,*61
1491937336.91,61600,14.38,73176.5,-11.65,-38.29,-39.29,0,*63
1491937338.18,61601,14.38,73156.0,-11.67,-38.61,-38.91,0,*6E
1491937339.47,61602,14.38,73170.5,-11.67,-36.61,-37.93,0,*6E
1491937340.77,61603,14.38,73166.8,-11.67,-35.83,-37.51,0,*6E
1491937342.04,61604,14.31,73162.5,-11.67,-36.97,-38.29,0,*6F
1491937343.26,61605,14.38,73188.5,-11.69,-37.57,-38.85,0,*6B
1491937344.5,61606,14.31,73164.3,-11.69,-38.67,-39.65,0,*6B
1491937345.74,61607,14.38,73176.0,-11.69,-38.49,-39.47,0,*66
1491937346.98,61608,14.31,73168.8,-11.69,-38.49,-39.47,0,*69
1491937348.24,61609,14.31,73174.0,-11.69,-38.49,-39.53,0,*6D
1491937349.48,61610,14.38,73178.8,-11.71,-38.35,-39.35,0,*67
1491937350.71,61611,14.31,73186.0,-11.69,-38.49,-39.35,0,*64
1491937351.96,61612,14.38,73182.3,-11.69,-36.85,-37.39,0,*6B
1491937353.18,61613,14.31,73160.8,-11.69,-35.71,-37.75,0,*6A
1491937354.44,61614,14.31,73170.8,-11.71,-36.79,-38.73,0,*66
1491937355.72,61615,14.31,73194.3,-11.71,-37.81,-39.09,0,*6D
1491937356.99,61616,14.38,73196.5,-11.71,-38.17,-39.29,0,*6C
1491937358.28,61617,14.31,73186.8,-11.71,-38.29,-39.29,0,*60
1491937359.58,61618,14.31,73192.8,-11.71,-38.29,-39.15,0,*60
1491937360.88,61619,14.31,73198.3,-11.71,-38.29,-39.29,0,*6E
1491937362.17,61620,14.31,73194.8,-11.71,-38.29,-39.29,0,*64
1491937363.44,61621,14.31,73196.5,-11.71,-38.17,-39.15,0,*67
1491937364.69,61622,14.38,73190.8,-11.71,-38.17,-38.97,0,*6F
1491937365.99,61623,14.31,73180.5,-11.71,-37.81,-38.67,0,*61
1491937367.21,61624,14.38,73182.3,-11.69,-37.75,-38.55,0,*65
1491937368.45,61625,14.31,73190.8,-11.69,-37.93,-38.73,0,*68
1491937369.71,61626,14.31,73190.3,-11.69,-38.11,-38.91,0,*62
1491937370.93,61627,14.31,73194.8,-11.69,-38.17,-39.09,0,*65
1491937372.2,61628,14.31,73184.5,-11.69,-38.29,-39.15,0,*6A
1491937373.44,61629,14.31,73186.3,-11.69,-38.17,-38.91,0,*6B
1491937374.68,61630,14.31,73186.0,-11.69,-37.39,-38.35,0,*6E
1491937375.9,61631,14.31,73184.5,-11.69,-37.33,-38.17,0,*65
1491937377.14,61632,14.31,73176.8,-11.67,-37.87,-38.61,0,*66
1491937378.38,61633,14.31,73182.3,-11.67,-37.75,-38.61,0,*6A
1491937379.62,61634,14.31,73174.8,-11.65,-38.05,-38.91,0,*68
1491937380.89,61635,14.31,73180.0,-11.67,-38.05,-38.91,0,*6B
1491937382.18,61636,14.31,73206.5,-11.67,-37.93,-38.67,0,*61
1491937383.45,61637,14.31,73170.3,-11.67,-35.29,-35.95,0,*63
1491937384.69,61638,14.31,73182.3,-11.65,-36.13,-37.15,0,*6E
1491937385.91,61639,14.31,73174.3,-11.61,-37.57,-38.55,0,*61
1491937387.12,61640,14.31,73166.0,-11.61,-38.05,-38.97,0,*69
1491937388.38,61641,14.31,73162.5,-11.59,-38.11,-38.97,0,*66
1491937389.64,61642,14.31,73168.0,-11.59,-37.99,-38.73,0,*60
1491937390.9,61643,14.31,73176.8,-11.59,-37.81,-38.73,0,*68
1491937392.16,61644,14.31,73182.8,-11.59,-37.93,-38.73,0,*6C
1491937393.45,61645,14.31,73188.3,-11.59,-37.93,-38.79,0,*67
1491937394.67,61646,14.31,73172.0,-11.61,-37.57,-38.35,0,*6F
1491937395.96,61647,14.31,73174.0,-11.59,-36.79,-37.63,0,*64
1491937397.23,61648,14.31,73186.5,-11.59,-37.57,-38.49,0,*61
1491937398.46,61649,14.31,73184.5,-11.57,-37.93,-38.97,0,*65
1491937399.73,61650,14.31,73186.3,-11.57,-37.99,-38.79,0,*67
1491937400.99,61651,14.31,73194.8,-11.57,-37.99,-38.91,0,*60
1491937402.22,61652,14.31,73192.8,-11.57,-38.11,-38.97,0,*6A
1491937403.46,61653,14.31,73190.8,-11.57,-38.11,-38.97,0,*6B
1491937404.75,61654,14.31,73188.0,-11.59,-37.99,-38.91,0,*6B
1491937406.04,61655,14.31,73190.3,-11.59,-38.29,-39.15,0,*63
1491937407.3,61656,14.31,73196.0,-11.59,-38.17,-39.15,0,*6D
1491937408.57,61657,14.31,73188.8,-11.57,-37.99,-38.79,0,*60
1491937409.86,61658,14.31,73196.3,-11.59,-37.93,-38.79,0,*6B
1491937411.15,61659,14.31,73194.8,-11.59,-37.93,-38.79,0,*6A
1491937412.44,61660,14.31,73190.0,-11.59,-37.93,-38.91,0,*66
1491937413.7,61661,14.31,73188.5,-11.59,-37.39,-38.17,0,*69
1491937414.99,61662,14.31,73154.5,-11.59,-37.63,-38.67,0,*62
1491937416.23,61663,14.31,73162.0,-11.57,-37.75,-38.79,0,*65
1491937417.49,61664,14.31,73170.5,-11.59,-38.11,-38.97,0,*61
1491937418.75,61665,14.31,73176.8,-11.59,-38.17,-39.29,0,*62
1491937420.02,61666,14.31,73178.0,-11.59,-37.99,-39.09,0,*6A
1491937421.28,61667,14.31,73184.0,-11.59,-37.99,-38.97,0,*6D
1491937422.57,61668,14.31,73188.8,-11.59,-38.11,-38.79,0,*6D
1491937423.87,61669,14.31,73182.3,-11.59,-37.81,-38.79,0,*6A
1491937425.13,61670,14.31,73182.3,-11.59,-37.21,-38.17,0,*60
1491937426.42,61671,14.31,73172.0,-11.59,-38.11,-39.15,0,*6E
1491937427.66,61672,14.31,73150.3,-11.59,-38.17,-39.09,0,*66
1491937428.95,61673,14.31,73194.0,-11.59,-38.11,-39.29,0,*63
1491937430.21,61674,14.31,73174.0,-11.59,-37.51,-38.55,0,*65
1491937431.48,61675,14.31,73170.0,-11.59,-37.63,-38.55,0,*65
1491937432.72,61676,14.31,73164.8,-11.57,-37.03,-37.93,0,*6B
1491937433.93,61677,14.31,73168.0,-11.57,-37.03,-38.17,0,*69
1491937435.2,61678,14.31,73168.5,-11.55,-37.51,-38.43,0,*62
1491937436.47,61679,14.31,73160.8,-11.51,-37.15,-38.29,0,*6B
1491937437.73,61680,14.31,73162.5,-11.55,-37.09,-38.05,0,*6A
1491937439.01,61681,14.31,73164.3,-11.55,-37.93,-39.03,0,*6F
1491937440.28,61682,14.31,73152.5,-11.57,-37.51,-38.67,0,*63
1491937441.51,61683,14.31,73144.5,-11.57,-37.57,-38.79,0,*6B
1491937442.8,61684,14.31,73150.5,-11.59,-37.99,-38.91,0,*66
1491937444.04,61685,14.31,73146.5,-11.61,-38.55,-39.59,0,*66
1491937445.27,61686,14.31,73156.8,-11.61,-38.11,-39.35,0,*6F
1491937446.5,61687,14.31,73182.5,-11.61,-38.23,-39.35,0,*6F
1491937447.74,61688,14.31,73136.5,-11.61,-35.59,-35.53,0,*6C
1491937448.98,61689,14.31,73084.8,-11.61,-29.51,-31.05,0,*6F
1491937450.22,61690,14.31,73082.8,-11.61,-30.01,-32.39,0,*66
1491937451.47,61691,14.31,73078.5,-11.59,-33.15,-36.55,0,*64
1491937452.73,61692,14.31,73210.3,-11.59,-35.71,-37.39,0,*68
1491937454.01,61693,14.31,73130.3,-11.59,-37.21,-38.55,0,*6B
1491937455.21,61694,14.31,73118.5,-11.61,-38.35,-39.35,0,*6A
1491937456.46,61695,14.31,73126.8,-11.59,-38.23,-39.35,0,*67
1491937457.69,61696,14.31,73140.3,-11.61,-38.35,-39.41,0,*6B
1491937458.93,61697,14.31,73136.0,-11.61,-37.69,-38.61,0,*6F
1491937460.17,61698,14.31,73158.0,-11.61,-38.35,-39.59,0,*6C
1491937461.4,61699,14.31,73170.5,-11.61,-38.61,-39.53,0,*66
1491937462.62,61700,14.31,73176.8,-11.61,-38.43,-38.61,0,*67
1491937463.84,61701,14.31,73182.8,-11.61,-35.77,-36.31,0,*67
1491937465.11,61702,14.31,73154.3,-11.59,-34.71,-34.95,0,*64
1491937466.35,61703,14.31,73126.8,-11.57,-33.15,-33.27,0,*60
1491937467.57,61704,14.31,73126.0,-11.57,-36.07,-36.31,0,*63
1491937468.8,61705,14.31,73118.0,-11.57,-34.89,-35.65,0,*64
1491937470.1,61706,14.31,73100.0,-11.55,-34.65,-34.01,0,*64
1491937471.36,61707,14.31,73136.3,-11.57,-30.61,-30.05,0,*67
1491937472.62,61708,14.31,73162.8,-11.55,-29.13,-32.13,0,*62
1491937473.86,61709,14.31,73162.0,-11.55,-32.35,-36.01,0,*6A
1491937475.16,61710,14.31,73140.0,-11.55,-34.53,-35.83,0,*6D
1491937476.4,61711,14.31,73146.5,-11.57,-34.41,-36.25,0,*62
1491937477.68,61712,14.31,73150.0,-11.55,-34.13,-35.95,0,*6C
1491937478.94,61713,14.31,73132.0,-11.57,-35.83,-37.93,0,*63
1491937480.2,61714,14.31,73156.3,-11.57,-37.93,-39.29,0,*68
1491937481.41,61715,14.31,73170.3,-11.57,-38.35,-39.47,0,*62
1491937482.64,61716,14.31,73172.8,-11.57,-38.67,-39.65,0,*66
1491937483.91,61717,14.31,73182.3,-11.57,-37.39,-36.61,0,*68
1491937485.17,61718,14.31,73142.3,-11.57,-33.77,-33.77,0,*6B
1491937486.38,61719,14.31,73094.0,-11.57,-34.89,-36.97,0,*67
1491937487.65,61720,14.31,73120.3,-11.57,-32.79,-33.77,0,*6F
1491937488.92,61721,14.31,73134.0,-11.55,-35.23,-36.55,0,*61
1491937490.18,61722,14.31,73136.3,-11.55,-37.87,-39.03,0,*62
1491937491.47,61723,14.31,73140.3,-11.55,-37.93,-38.67,0,*65
1491937492.74,61724,14.31,73122.8,-11.55,-36.73,-38.67,0,*6D
1491937493.97,61725,14.31,73134.3,-11.57,-38.49,-39.47,0,*6A
1491937495.23,61726,14.31,73134.8,-11.57,-38.67,-39.53,0,*60
1491937496.44,61727,14.31,73134.3,-11.57,-38.61,-39.47,0,*62
1491937497.69,61728,14.31,73146.5,-11.57,-38.67,-39.53,0,*6E
1491937498.92,61729,14.31,73154.5,-11.57,-38.49,-39.47,0,*66
1491937500.18,61730,14.31,73142.3,-11.59,-38.35,-39.29,0,*63
1491937501.44,61731,14.31,73144.8,-11.59,-37.51,-38.73,0,*61
1491937502.7,61732,14.31,73152.0,-11.59,-38.17,-39.29,0,*61
1491937503.91,61733,14.31,73168.0,-11.61,-38.05,-38.73,0,*66
1491937505.14,61734,14.31,73178.8,-11.61,-33.83,-35.89,0,*6C
1491937506.35,61735,14.31,73148.3,-11.65,-35.47,-35.59,0,*6A
1491937507.57,61736,14.31,73136.0,-11.65,-30.67,-31.05,0,*63
1491937508.84,61737,14.31,73104.0,-11.65,-28.25,-29.01,0,*60
1491937510.08,61738,14.31,73048.8,-11.65,-27.35,-27.51,0,*6A
1491937511.33,61739,14.31,73112.8,-11.67,-27.93,-29.13,0,*6D
1491937512.62,61740,14.31,73128.5,-11.67,-29.13,-30.39,0,*65
1491937513.86,61741,14.31,73202.3,-11.67,-30.23,-34.47,0,*62
1491937515.09,61742,14.31,73200.5,-11.65,-35.01,-38.43,0,*6E
1491937516.35,61743,14.31,73156.5,-11.67,-37.45,-38.11,0,*68
1491937517.56,61744,14.31,73170.5,-11.69,-37.15,-38.17,0,*62
1491937518.81,61745,14.31,73158.0,-11.69,-37.81,-39.47,0,*6A
1491937520.01,61746,14.31,73170.3,-11.69,-38.35,-39.47,0,*69
1491937521.25,61747,14.31,73156.3,-11.69,-38.29,-39.47,0,*65
1491937522.5,61748,14.31,73154.0,-11.69,-38.49,-39.65,0,*6C
1491937523.71,61749,14.31,73132.5,-11.69,-38.55,-39.35,0,*65
1491937524.92,61750,14.31,73116.5,-11.69,-38.17,-38.97,0,*62
1491937526.19,61751,14.31,73148.5,-11.71,-35.13,-35.83,0,*6B
1491937527.45,61752,14.31,73144.3,-11.71,-36.85,-38.35,0,*64
1491937528.72,61753,14.31,73130.8,-11.71,-38.17,-39.29,0,*6C
1491937529.92,61754,14.31,73132.5,-11.69,-38.55,-39.47,0,*6C
1491937531.17,61755,14.31,73140.8,-11.69,-38.17,-39.15,0,*6C
1491937532.41,61756,14.31,73122.8,-11.69,-36.97,-37.39,0,*69
1491937533.65,61757,14.31,73140.8,-11.69,-36.43,-38.11,0,*64
1491937534.92,61758,14.31,73154.5,-11.69,-37.93,-39.29,0,*6D
1491937536.16,61759,14.31,73148.0,-11.69,-38.17,-39.29,0,*6F
1491937537.45,61760,14.31,73148.8,-11.71,-37.99,-38.91,0,*67
1491937538.74,61761,14.31,73156.8,-11.71,-38.11,-39.29,0,*6B
1491937540.04,61762,14.31,73164.3,-11.71,-38.29,-39.29,0,*63
1491937541.31,61763,14.31,73166.8,-11.71,-38.17,-39.15,0,*60
1491937542.55,61764,14.31,73170.8,-11.69,-38.11,-39.09,0,*65
1491937543.82,61765,14.31,73166.0,-11.71,-38.11,-38.97,0,*6B
1491937545.07,61766,14.31,73140.5,-11.69,-37.81,-38.85,0,*64
1491937546.34,61767,14.31,73126.5,-11.69,-37.81,-38.67,0,*69
1491937547.64,61768,14.31,73050.8,-11.71,-38.29,-39.15,0,*66
1491937548.88,61769,14.31,73032.5,-11.69,-37.99,-38.73,0,*6B
1491937550.11,61770,14.31,73206.8,-11.69,-38.11,-39.35,0,*6F
1491937551.38,61771,14.31,73138.3,-11.69,-38.49,-39.71,0,*63
1491937552.63,61772,14.31,73144.5,-11.69,-38.49,-39.65,0,*65
1491937553.86,61773,14.31,73140.5,-11.71,-38.35,-39.47,0,*66
1491937555.13,61774,14.31,73112.3,-11.71,-38.35,-39.53,0,*64
1491937556.36,61775,14.31,73082.0,-11.71,-38.35,-39.47,0,*60
1491937557.63,61776,14.31,73088.3,-11.71,-38.17,-39.15,0,*64
1491937558.9,61777,14.31,73146.0,-11.71,-38.29,-39.47,0,*6F
1491937560.2,61778,14.31,73126.0,-11.71,-38.49,-39.53,0,*63
1491937561.43,61779,14.31,73122.8,-11.71,-38.17,-39.35,0,*69
1491937562.64,61780,14.31,73138.0,-11.69,-38.17,-39.35,0,*66
1491937563.91,61781,14.25,73120.3,-11.71,-38.17,-39.15,0,*6C
1491937565.18,61782,14.31,73126.3,-11.71,-38.35,-39.53,0,*6D
1491937566.42,61783,14.31,73100.5,-11.71,-38.55,-39.65,0,*6F
1491937567.67,61784,14.31,73112.8,-11.71,-38.55,-39.65,0,*68
1491937568.97,61785,14.31,73118.3,-11.71,-38.49,-39.53,0,*61
1491937570.27,61786,14.31,73122.3,-11.71,-38.49,-39.53,0,*62
1491937571.54,61787,14.31,73114.5,-11.71,-38.55,-39.71,0,*6E
1491937572.77,61788,14.25,73122.3,-11.71,-38.17,-39.35,0,*67
1491937574.04,61789,14.31,73130.0,-11.71,-38.29,-39.47,0,*6E
1491937575.3,61790,14.31,73138.8,-11.73,-38.05,-39.23,0,*68
1491937576.57,61791,14.31,73124.8,-11.73,-37.87,-38.79,0,*62
1491937577.83,61792,14.31,73130.5,-11.73,-37.75,-38.79,0,*6C
1491937579.11,61793,14.31,73136.8,-11.71,-36.97,-37.81,0,*6A
1491937580.38,61794,14.31,73134.8,-11.71,-37.03,-37.99,0,*68
1491937581.6,61795,14.31,73140.0,-11.69,-37.33,-38.35,0,*6A
1491937582.84,61796,14.31,73144.3,-11.69,-37.57,-38.67,0,*6C
1491937584.08,61797,14.31,73144.3,-11.69,-37.57,-38.67,0,*6D
1491937585.33,61798,14.31,73140.3,-11.69,-37.39,-38.35,0,*6D
1491937586.57,61799,14.31,73138.8,-11.69,-37.15,-37.99,0,*6B
1491937587.84,61800,14.31,73136.8,-11.67,-37.33,-38.23,0,*60
1491937589.11,61801,14.31,73142.8,-11.65,-37.69,-38.67,0,*6C
1491937590.37,61802,14.31,73144.3,-11.65,-37.69,-38.67,0,*6F
1491937591.62,61803,14.31,73144.8,-11.65,-37.45,-38.49,0,*6C
1491937592.86,61804,14.31,73136.0,-11.65,-37.93,-38.85,0,*60
1491937594.09,61805,14.31,73146.0,-11.65,-38.05,-39.03,0,*6E
1491937595.31,61806,14.31,73138.8,-11.65,-37.33,-38.43,0,*62
1491937596.55,61807,14.31,73150.3,-11.61,-37.39,-38.55,0,*6A
1491937597.77,61808,14.31,73148.5,-11.61,-37.45,-38.35,0,*68
1491937599.01,61809,14.31,73152.8,-11.65,-37.27,-38.29,0,*64
1491937600.23,61810,14.31,73150.3,-11.65,-36.43,-37.45,0,*6A
1491937601.46,61811,14.31,73150.0,-11.61,-35.89,-36.91,0,*62
1491937602.73,61812,14.31,73144.3,-11.59,-36.61,-37.57,0,*64
1491937604.0,61813,14.31,73148.8,-11.59,-37.21,-38.17,0,*6B
1491937605.27,61814,14.31,73146.5,-11.55,-37.27,-38.29,0,*6B
1491937606.51,61815,14.31,73140.3,-11.57,-37.03,-37.99,0,*6A
1491937607.75,61816,14.31,73144.5,-11.57,-36.85,-37.93,0,*6C
1491937609.01,61817,14.31,73152.8,-11.57,-36.79,-37.93,0,*6E
1491937610.25,61818,14.31,73142.8,-11.51,-37.45,-38.43,0,*6B
1491937611.51,61819,14.31,73148.5,-11.55,-37.09,-38.05,0,*64
1491937612.78,61820,14.31,73160.5,-11.51,-36.97,-37.93,0,*6C
1491937614.02,61821,14.31,73164.0,-11.49,-37.39,-38.35,0,*62
1491937615.26,61822,14.31,73152.0,-11.49,-37.09,-38.35,0,*62
1491937616.49,61823,14.31,73162.5,-11.51,-37.57,-38.61,0,*60
1491937617.78,61824,14.31,73174.3,-11.51,-37.69,-38.67,0,*6C
1491937619.03,61825,14.25,73164.5,-11.49,-37.81,-38.85,0,*6E
1491937620.31,61826,14.31,73176.0,-11.51,-37.93,-38.91,0,*62
1491937621.57,61827,14.31,73172.0,-11.49,-37.99,-39.03,0,*6A
1491937622.81,61828,14.31,73170.5,-11.51,-38.05,-39.09,0,*6C
1491937624.07,61829,14.25,73164.8,-11.51,-38.05,-39.23,0,*65
1491937625.35,61830,14.31,73176.8,-11.51,-38.23,-39.23,0,*69
1491937626.63,61831,14.31,73172.3,-11.51,-38.23,-39.23,0,*68
1491937627.91,61832,14.31,73172.8,-11.51,-38.11,-39.23,0,*6A
1491937629.18,61833,14.25,73168.0,-11.55,-37.93,-39.09,0,*62
1491937630.41,61834,14.31,73172.5,-11.57,-38.29,-39.35,0,*66
1491937631.69,61835,14.25,73170.5,-11.55,-38.29,-39.41,0,*66
1491937632.98,61836,14.25,73184.0,-11.55,-38.29,-39.41,0,*65
1491937634.25,61837,14.31,73192.5,-11.55,-38.11,-39.09,0,*63
1491937635.51,61838,14.31,73196.5,-11.55,-37.93,-39.09,0,*69
1491937636.8,61839,14.31,73192.0,-11.55,-37.93,-39.03,0,*62
1491937638.07,61840,14.25,73188.8,-11.55,-37.87,-38.91,0,*63
1491937639.32,61841,14.25,73190.8,-11.57,-38.11,-39.29,0,*62
1491937640.61,61842,14.25,73188.3,-11.55,-38.23,-39.23,0,*68
1491937641.87,61843,14.31,73194.5,-11.55,-38.05,-39.23,0,*6D
1491937643.13,61844,14.25,73182.0,-11.57,-37.99,-39.29,0,*68
1491937644.42,61845,14.25,73182.3,-11.55,-37.93,-38.91,0,*63
1491937645.66,61846,14.25,73184.5,-11.57,-38.11,-39.09,0,*67
1491937646.9,61847,14.25,73180.3,-11.55,-38.05,-39.09,0,*61
1491937648.1,61848,14.25,73168.8,-11.57,-38.35,-39.47,0,*65
1491937649.36,61849,14.25,73184.8,-11.57,-38.11,-39.29,0,*6A
1491937650.63,61850,14.31,73188.5,-11.57,-37.81,-38.79,0,*60
1491937651.9,61851,14.25,73186.3,-11.57,-37.81,-38.91,0,*67
1491937653.16,61852,14.25,73182.3,-11.55,-37.87,-39.03,0,*6A
1491937654.41,61853,14.25,73180.5,-11.55,-37.87,-38.61,0,*6E
1491937655.65,61854,14.25,73170.0,-11.55,-37.75,-38.43,0,*64
1491937656.92,61855,14.25,73134.8,-11.57,-37.21,-38.49,0,*6C
1491937658.18,61856,14.25,73188.8,-11.55,-38.49,-39.47,0,*63
1491937659.41,61857,14.25,73192.3,-11.55,-38.43,-39.47,0,*68
1491937660.65,61858,14.31,73158.8,-11.57,-37.99,-38.73,0,*6B
1491937661.89,61859,14.25,73162.8,-11.55,-37.57,-38.85,0,*63
1491937663.13,61860,14.25,73168.8,-11.57,-37.99,-39.09,0,*6C
1491937664.37,61861,14.25,73178.5,-11.55,-37.87,-38.85,0,*65
1491937665.61,61862,14.25,73186.8,-11.57,-37.99,-39.09,0,*6E
1491937666.9,61863,14.25,73200.8,-11.55,-37.93,-39.03,0,*6D
1491937668.18,61864,14.25,73212.8,-11.55,-37.93,-39.03,0,*6A
1491937669.45,61865,14.25,73204.8,-11.55,-37.45,-38.49,0,*6F
1491937670.75,61866,14.25,73196.0,-11.55,-35.07,-35.95,0,*64
1491937672.02,61867,14.25,73104.8,-11.55,-35.65,-36.55,0,*6E
1491937673.23,61868,14.25,73186.5,-11.49,-36.07,-37.27,0,*6F
1491937674.47,61869,14.25,73172.3,-11.51,-37.15,-38.61,0,*68
1491937675.67,61870,14.25,73148.5,-11.49,-37.75,-38.73,0,*6C
1491937676.96,61871,14.25,73168.8,-11.51,-37.51,-38.67,0,*67
1491937678.2,61872,14.25,73184.8,-11.49,-37.69,-38.61,0,*60
1491937679.49,61873,14.25,73188.0,-11.47,-37.69,-38.67,0,*69
1491937680.75,61874,14.25,73194.0,-11.51,-37.15,-38.11,0,*63
1491937681.99,61875,14.25,73202.5,-11.47,-37.45,-38.55,0,*60
1491937683.23,61876,14.25,73216.3,-11.47,-37.03,-38.17,0,*67
1491937684.46,61877,14.25,73202.5,-11.47,-36.67,-37.45,0,*6D
1491937685.68,61878,14.25,73200.0,-11.45,-35.71,-36.67,0,*65
1491937686.92,61879,14.25,73192.0,-11.45,-36.07,-37.21,0,*65
1491937688.13,61880,14.25,73200.3,-11.41,-36.43,-37.33,0,*64
1491937689.36,61881,14.25,73206.0,-11.41,-36.97,-38.11,0,*63
1491937690.6,61882,14.25,73204.8,-11.43,-36.07,-36.97,0,*6B
1491937691.84,61883,14.25,73220.3,-11.41,-35.95,-36.73,0,*6A
1491937693.11,61884,14.25,73222.8,-11.35,-34.65,-35.41,0,*62